Flag for France Weather past 2 weeks in Tours, France

Now
48 °F

Passing clouds.


Feels Like: 46 °F
Forecast: 39 / 49 °F
Wind: 6 mph from Northwest

Location: Tours Airport

Current Time: Dec 19, 2014 at 11:54:07 PM

Latest Report: Dec 19, 2014 at 11:00 PM


Visibility: N/A

Pressure: 30.36 "Hg

Humidity: 87%

Dew point: 45 °F

Location of ToursLocation

Historic Weather in Tours — Graph

°F

Tours temperature yesterday

Maximum temperature yesterday: 55 °F (at 4:30 AM)
Minimum temperature yesterday: 50 °F (at 11:00 PM)
Average temperature yesterday: 53 °F

Past Weeks' High & Low Weather Summary

 TemperatureHumidityPressure
High55 °F (Dec 18, 4:30 AM)100% (Dec 5, 8:00 AM)30.48 "Hg (Dec 5, 8:00 AM)
Low27 °F (Dec 15, 1:00 AM)66% (Dec 6, 1:30 PM)29.71 "Hg (Dec 12, 2:30 PM)
Average44 °F90%30.12 "Hg
* Reported Dec 4 11:30 PM — Dec 19 11:00 PM, Tours, Weather by CustomWeather, © 2014

Note: Actual official high and low records may vary slightly from our data, if they occured in-between our weather recording intervals... More about our weather records

Advertising

Tours weather history for previous 24 hours

 ConditionsComfort  
Time TempWeatherWind HumidityBarometerVisibility
11:00 PM
Dec 19
48 °FPassing clouds.6 mph87%30.36 "HgN/A
10:30 PM48 °FPassing clouds.7 mph87%30.36 "HgN/A
10:00 PM48 °FPassing clouds.7 mph94%30.33 "HgN/A
9:30 PM48 °FPassing clouds.8 mph94%30.33 "HgN/A
9:00 PM48 °FLight rain. Partly cloudy.9 mph100%30.33 "Hg5 mi
8:30 PM50 °FLight rain. Partly cloudy.8 mph94%30.30 "Hg2 mi
8:00 PM50 °FLight rain. Partly cloudy.12 mph94%30.30 "Hg2 mi
7:30 PM54 °FDrizzle. Low clouds.10 mph94%30.27 "Hg4 mi
7:00 PM54 °FDrizzle. Low clouds.12 mph94%30.24 "Hg5 mi
6:30 PM54 °FDrizzle. Low clouds.12 mph94%30.24 "Hg4 mi
6:00 PM54 °FDrizzle. Fog.12 mph94%30.21 "Hg3 mi
5:30 PM54 °FDrizzle. Fog.12 mph94%30.21 "Hg3 mi
5:00 PM54 °FLow clouds.13 mph94%30.21 "Hg4 mi
4:30 PM54 °FLight rain. Low clouds.14 mph94%30.21 "Hg5 mi
4:00 PM54 °FLight rain. Low clouds.14 mph94%30.21 "Hg4 mi
3:30 PM54 °FDrizzle. Low clouds.16 mph94%30.21 "Hg4 mi
3:00 PM54 °FDrizzle. Low clouds.16 mph94%30.21 "Hg4 mi
2:30 PM54 °FDrizzle. Low clouds.15 mph94%30.21 "HgN/A
2:00 PM54 °FDrizzle. Low clouds.16 mph88%30.21 "HgN/A
1:30 PM54 °FLow clouds.17 mph88%30.21 "HgN/A
1:00 PM52 °FLow clouds.15 mph94%30.21 "HgN/A
12:30 PM52 °FLow clouds.16 mph94%30.24 "HgN/A
12:00 PM52 °FLow clouds.16 mph94%30.24 "HgN/A
11:30 AM52 °FOvercast.16 mph94%30.24 "HgN/A
11:00 AM52 °FLow clouds.16 mph94%30.24 "HgN/A
10:30 AM52 °FMostly cloudy.15 mph94%30.24 "HgN/A
10:00 AM52 °FLow clouds.15 mph94%30.24 "HgN/A
9:30 AM52 °FLow clouds.13 mph94%30.21 "HgN/A
9:00 AM52 °FMostly cloudy.13 mph94%30.21 "HgN/A
8:30 AM52 °FDrizzle. Mostly cloudy.13 mph94%30.21 "HgN/A
8:00 AM52 °FPassing clouds.12 mph94%30.21 "HgN/A
7:30 AM50 °FDrizzle. Fog.12 mph100%30.21 "Hg3 mi
7:00 AM52 °FLow clouds.14 mph94%30.21 "HgN/A
6:30 AM52 °FOvercast.17 mph88%30.21 "HgN/A
6:00 AM52 °FOvercast.15 mph94%30.21 "HgN/A
5:30 AM52 °FOvercast.14 mph88%30.21 "HgN/A
5:00 AM52 °FOvercast.14 mph94%30.21 "HgN/A
4:30 AM52 °FLow clouds.14 mph94%30.21 "HgN/A
4:00 AM52 °FLow clouds.13 mph94%30.21 "HgN/A
3:30 AM52 °FDrizzle. Fog.10 mph94%30.24 "Hg3 mi
3:00 AM52 °FMostly cloudy.12 mph94%30.24 "Hg5 mi
2:30 AM52 °FLow clouds.13 mph94%30.24 "HgN/A
2:00 AM52 °FMostly cloudy.10 mph94%30.24 "HgN/A
1:30 AM52 °FMostly cloudy.10 mph94%30.24 "HgN/A
1:00 AM52 °FLow clouds.10 mph94%30.24 "HgN/A
12:30 AM52 °FLow clouds.10 mph94%30.24 "HgN/A
12:00 AM52 °FLow clouds.12 mph94%30.27 "HgN/A
11:30 PM
Dec 18
50 °FMostly cloudy.8 mph100%30.27 "HgN/A
11:00 PM50 °FMostly cloudy.12 mph94%30.27 "HgN/A
Weather by CustomWeather, © 2014

See weather overviewHow to use our weather pages